Weather History for Port Angeles, WA

Change the Weather History Date:

Monday, January 6, 2014

  Actual Average Record
Temperature  
Mean Temperature 37 °F -  
Max Temperature 41 °F 43 °F 52 °F (1981)
Min Temperature 33 °F 31 °F 17 °F (1973)
Degree Days  
Heating Degree Days 28    
Moisture  
Dew Point 33 °F    
Average Humidity 87    
Maximum Humidity 92    
Minimum Humidity 76    
Precipitation  
Precipitation 0.00 in - - ()
Sea Level Pressure  
Sea Level Pressure 30.21 in    
Wind  
Wind Speed 4 mph (SE)    
Max Wind Speed 7 mph    
Max Gust Speed -    
Visibility 10 miles    
Events      
Averages and records for this station are not official NWS values.
T = Trace of Precipitation, MM = Missing Value Source: NWS Daily Summary

Daily Weather History Graph

Daily Weather History Graph

Search for Another Location

Airport:

Trip Planner

Search our weather history database for the weather conditions in past years. The results will help you decide how hot, cold, wet, or windy it might be!

Date:

Astronomy

Jan. 06, 2014 Rise Set
Actual Time 8:03 AM PST 4:36 PM PST
Civil Twilight 7:27 AM PST 5:12 PM PST
Nautical Twilight 6:48 AM PST 5:51 PM PST
Astronomical Twilight 6:10 AM PST 6:29 PM PST
Moon 10:52 AM PST (1/6) 11:48 PM PST (1/6)
Length of Visible Light 9h 44m
Length of Day
8h 33m
Waxing Crescent, 36% of the Moon is Illuminated
Jan 6
Waxing Crescent
Jan 7
First Quarter
Jan 15
Full
Jan 23
Last Quarter
Jan 30
New

Hourly Weather History & Observations

Time (PST) Temp. Windchill Dew Point Humidity Pressure Visibility Wind Dir Wind Speed Gust Speed Precip Events Conditions
12:25 AM 37.0 °F 32.4 °F 33.1 °F 86% 30.33 in 10.0 mi ESE 5.8 mph - N/A   Overcast
12:53 AM 37.0 °F 32.4 °F 33.1 °F 86% 30.33 in 10.0 mi ESE 5.8 mph - N/A   Overcast
1:53 AM 37.0 °F 32.4 °F 33.1 °F 86% 30.32 in 10.0 mi ESE 5.8 mph - N/A   Overcast
2:53 AM 37.9 °F 32.7 °F 34.0 °F 86% 30.31 in 10.0 mi ESE 6.9 mph - N/A   Overcast
3:30 AM 35.1 °F 29.3 °F 32.0 °F 89% 30.29 in 10.0 mi SSE 6.9 mph - N/A   Mostly Cloudy
3:48 AM 33.8 °F 27.7 °F 30.2 °F 87% 30.28 in 10.0 mi SE 6.9 mph - N/A   Scattered Clouds
3:53 AM 33.1 °F 27.7 °F 30.9 °F 92% 30.29 in 10.0 mi SE 5.8 mph - N/A   Partly Cloudy
4:33 AM 33.1 °F 27.7 °F 30.0 °F 89% 30.27 in 10.0 mi SE 5.8 mph - N/A   Mostly Cloudy
4:53 AM 33.1 °F 28.7 °F 30.9 °F 92% 30.27 in 10.0 mi SE 4.6 mph - N/A   Overcast
5:53 AM 34.0 °F - 30.9 °F 89% 30.25 in 10.0 mi Calm Calm - N/A   Overcast
6:53 AM 33.1 °F 30.0 °F 30.0 °F 89% 30.25 in 10.0 mi SSW 3.5 mph - N/A   Overcast
7:53 AM 33.1 °F - 30.9 °F 92% 30.23 in 10.0 mi Calm Calm - N/A   Overcast
8:53 AM 34.0 °F - 30.9 °F 89% 30.24 in 10.0 mi Calm Calm - N/A   Overcast
9:53 AM 36.0 °F - 33.1 °F 89% 30.23 in 10.0 mi Calm Calm - N/A   Overcast
10:53 AM 39.0 °F - 35.1 °F 86% 30.22 in 10.0 mi Calm Calm - N/A   Overcast
11:53 AM 41.0 °F 39.0 °F 35.1 °F 79% 30.20 in 10.0 mi ESE 3.5 mph - N/A   Mostly Cloudy
12:41 PM 41.0 °F 39.0 °F 35.1 °F 79% 30.17 in 10.0 mi East 3.5 mph - N/A   Scattered Clouds
12:53 PM 41.0 °F 39.0 °F 35.1 °F 79% 30.18 in 10.0 mi East 3.5 mph - N/A   Clear
1:53 PM 41.0 °F 38.0 °F 34.0 °F 76% 30.15 in 10.0 mi East 4.6 mph - N/A   Clear
2:53 PM 41.0 °F 39.0 °F 34.0 °F 76% 30.15 in 10.0 mi East 3.5 mph - N/A   Clear
3:53 PM 39.9 °F - 34.0 °F 79% 30.16 in 10.0 mi Calm Calm - N/A   Clear
4:53 PM 37.9 °F 35.5 °F 34.0 °F 86% 30.14 in 10.0 mi West 3.5 mph - N/A   Partly Cloudy
5:53 PM 37.0 °F 33.3 °F 34.0 °F 89% 30.14 in 10.0 mi SW 4.6 mph - N/A   Clear
6:53 PM 35.1 °F - 32.0 °F 89% 30.14 in 10.0 mi Calm Calm - N/A   Clear
7:53 PM 34.0 °F 31.0 °F 32.0 °F 92% 30.13 in 10.0 mi SSE 3.5 mph - N/A   Scattered Clouds
8:53 PM 35.1 °F 32.2 °F 32.0 °F 89% 30.12 in 10.0 mi SSW 3.5 mph - N/A   Clear
9:53 PM 34.0 °F 31.0 °F 32.0 °F 92% 30.12 in 10.0 mi SW 3.5 mph - N/A   Scattered Clouds
10:53 PM 34.0 °F - 32.0 °F 92% 30.12 in 10.0 mi Calm Calm - N/A   Mostly Cloudy
11:53 PM 35.1 °F - 33.1 °F 92% 30.12 in 10.0 mi Calm Calm - N/A   Overcast